Allentown, PA

8:26 PM EST on December 06, 2019 (GMT -0500)
Allentown

Weather History for KXLL - May, 2019

Change the Weather History Date:

Friday, May 24, 2019

  Actual Average (KABE) Record (KABE)
Temperature  
Mean Temperature 70 °F -  
Max Temperature 77 °F 74 °F 90 °F (1936)
Min Temperature 62 °F 52 °F 33 °F (1926)
Cooling Degree Days 4    
Growing Degree Days 20 (Base 50)    
Moisture  
Dew Point 54 °F    
Average Humidity 58    
Maximum Humidity 100    
Minimum Humidity 41    
Precipitation  
Precipitation 0.00 in - - ()
Sea Level Pressure  
Sea Level Pressure 29.99 in    
Wind  
Wind Speed 8 mph ()    
Max Wind Speed 18 mph    
Max Gust Speed 29 mph    
Visibility 10.0 miles    
Events      
Averages and records for this station are not official NWS values.
T = Trace of Precipitation, MM = Missing Value Source: Averaged Metar Reports

Daily Weather History Graph

Daily Weather History Graph

Search for Another Location

Airport or City:

Astronomy

May. 24, 2019 Rise Set
Actual Time 5:38 AM EDT 8:19 PM EDT
Civil Twilight 5:06 AM EDT 8:51 PM EDT
Nautical Twilight 4:26 AM EDT 9:31 PM EDT
Astronomical Twilight 3:41 AM EDT 10:17 PM EDT
Moon 12:43 AM EDT (5/24) 10:36 AM EDT (5/24)
Length of Visible Light 15h 45m
Length of Day
14h 41m
Waning Gibbous, 69% of the Moon is Illuminated
May 24
Waning Gibbous
May 26
Last Quarter
Jun 3
New
Jun 10
First Quarter
Jun 17
Full

Hourly Weather History & Observations

Time (EDT) Temp. Dew Point Humidity Pressure Visibility Wind Dir Wind Speed Gust Speed Precip Events Conditions
12:15 AM 69.8 °F 68.0 °F 94% 29.88 in 10.0 mi WSW 4.6 mph - N/A   Scattered Clouds
12:35 AM 69.8 °F 68.0 °F 94% 29.88 in 10.0 mi WSW 6.9 mph - N/A   Clear
12:55 AM 69.8 °F 68.0 °F 94% 29.87 in 10.0 mi SW 10.4 mph - N/A   Scattered Clouds
1:15 AM 69.8 °F 68.0 °F 94% 29.87 in 10.0 mi SW 8.1 mph 16.1 mph N/A   Scattered Clouds
1:35 AM 69.8 °F 68.0 °F 94% 29.87 in 10.0 mi SW 9.2 mph - N/A   Clear
1:55 AM 68.0 °F 66.2 °F 94% 29.87 in 10.0 mi SW 8.1 mph - N/A   Clear
2:15 AM 68.0 °F 66.2 °F 94% 29.87 in 10.0 mi SW 6.9 mph - N/A   Clear
2:35 AM 68.0 °F 64.4 °F 88% 29.86 in 10.0 mi SW 6.9 mph - N/A   Clear
2:55 AM 66.2 °F 64.4 °F 94% 29.87 in 10.0 mi SW 5.8 mph - N/A   Clear
3:15 AM 64.4 °F 64.4 °F 100% 29.87 in 10.0 mi SW 3.5 mph - N/A   Clear
3:35 AM 64.4 °F 62.6 °F 94% 29.87 in 10.0 mi Calm Calm - N/A   Clear
3:55 AM 64.4 °F 62.6 °F 94% 29.88 in 10.0 mi SSW 3.5 mph - N/A   Clear
4:15 AM 66.2 °F 59.0 °F 78% 29.88 in 10.0 mi West 3.5 mph - N/A   Clear
4:35 AM 68.0 °F 55.4 °F 64% 29.89 in 10.0 mi NW 10.4 mph 16.1 mph N/A   Clear
4:55 AM 68.0 °F 51.8 °F 56% 29.90 in 10.0 mi WNW 6.9 mph 16.1 mph N/A   Clear
5:15 AM 68.0 °F 51.8 °F 56% 29.90 in 10.0 mi West 6.9 mph - N/A   Clear
5:35 AM 66.2 °F 50.0 °F 56% 29.91 in 10.0 mi West 5.8 mph 16.1 mph N/A   Clear
5:55 AM 66.2 °F 50.0 °F 56% 29.92 in 10.0 mi WNW 11.5 mph 17.3 mph N/A   Clear
6:15 AM 64.4 °F 50.0 °F 59% 29.93 in 10.0 mi West 6.9 mph - N/A   Clear
6:35 AM 64.4 °F 50.0 °F 59% 29.94 in 10.0 mi WNW 6.9 mph 18.4 mph N/A   Clear
6:55 AM 64.4 °F 50.0 °F 59% 29.95 in 10.0 mi West 9.2 mph - N/A   Clear
7:15 AM 64.4 °F 48.2 °F 56% 29.96 in 10.0 mi WNW 9.2 mph 17.3 mph N/A   Clear
7:35 AM 64.4 °F 46.4 °F 52% 29.96 in 10.0 mi WNW 5.8 mph 18.4 mph N/A   Clear
7:55 AM 66.2 °F 48.2 °F 52% 29.96 in 10.0 mi WNW 11.5 mph 18.4 mph N/A   Clear
8:15 AM 66.2 °F 48.2 °F 52% 29.96 in 10.0 mi West 10.4 mph 17.3 mph N/A   Clear
8:35 AM 68.0 °F 46.4 °F 46% 29.97 in 10.0 mi WNW 12.7 mph 19.6 mph N/A   Clear
8:55 AM 68.0 °F 46.4 °F 46% 29.97 in 10.0 mi NW 9.2 mph 20.7 mph N/A   Clear
9:15 AM 68.0 °F 48.2 °F 49% 29.97 in 10.0 mi WNW 9.2 mph 17.3 mph N/A   Clear
9:35 AM 68.0 °F 50.0 °F 52% 29.97 in 10.0 mi WNW 9.2 mph 20.7 mph N/A   Clear
9:55 AM 68.0 °F 50.0 °F 52% 29.97 in 10.0 mi West 6.9 mph 16.1 mph N/A   Scattered Clouds
10:15 AM 68.0 °F 50.0 °F 52% 29.97 in 10.0 mi NW 11.5 mph 21.9 mph N/A   Scattered Clouds
10:35 AM 68.0 °F 50.0 °F 52% 29.98 in 10.0 mi WNW 15.0 mph 21.9 mph N/A   Scattered Clouds
10:55 AM 69.8 °F 50.0 °F 49% 29.98 in 10.0 mi NW 9.2 mph 19.6 mph N/A   Mostly Cloudy
11:15 AM 69.8 °F 50.0 °F 49% 29.99 in 10.0 mi WNW 13.8 mph 19.6 mph N/A   Overcast
11:35 AM 69.8 °F 51.8 °F 53% 29.99 in 10.0 mi NW 15.0 mph 20.7 mph N/A   Mostly Cloudy
11:55 AM 71.6 °F 51.8 °F 50% 29.99 in 10.0 mi WNW 12.7 mph 20.7 mph N/A   Clear
12:15 PM 71.6 °F 51.8 °F 50% 30.00 in 10.0 mi NW 11.5 mph 18.4 mph N/A   Scattered Clouds
12:35 PM 73.4 °F 51.8 °F 47% 30.00 in 10.0 mi NW 10.4 mph 16.1 mph N/A   Scattered Clouds
12:55 PM 73.4 °F 53.6 °F 50% 30.00 in 10.0 mi WNW 12.7 mph 23.0 mph N/A   Mostly Cloudy
1:15 PM 73.4 °F 53.6 °F 50% 29.99 in 10.0 mi NNW 12.7 mph - N/A   Scattered Clouds
1:35 PM 73.4 °F 51.8 °F 47% 30.00 in 10.0 mi NW 15.0 mph 23.0 mph N/A   Scattered Clouds
1:55 PM 75.2 °F 51.8 °F 44% 30.00 in 10.0 mi NW 15.0 mph 23.0 mph N/A   Scattered Clouds
2:15 PM 75.2 °F 53.6 °F 47% 30.00 in 10.0 mi NNW 12.7 mph 21.9 mph N/A   Scattered Clouds
2:35 PM 75.2 °F 51.8 °F 44% 30.00 in 10.0 mi NW 11.5 mph 28.8 mph N/A   Scattered Clouds
2:55 PM 77.0 °F 53.6 °F 44% 30.00 in 10.0 mi NW 9.2 mph 19.6 mph N/A   Scattered Clouds
3:15 PM 77.0 °F 51.8 °F 41% 30.00 in 10.0 mi NW 13.8 mph 21.9 mph N/A   Scattered Clouds
3:35 PM 77.0 °F 51.8 °F 41% 30.00 in 10.0 mi NW 9.2 mph 24.2 mph N/A   Scattered Clouds
3:55 PM 77.0 °F 53.6 °F 44% 30.01 in 10.0 mi NW 10.4 mph 18.4 mph N/A   Scattered Clouds
4:15 PM 77.0 °F 53.6 °F 44% 30.01 in 10.0 mi NW 10.4 mph 16.1 mph N/A   Scattered Clouds
4:35 PM 77.0 °F 51.8 °F 41% 30.01 in 10.0 mi NW 13.8 mph 21.9 mph N/A   Scattered Clouds
4:55 PM 77.0 °F 51.8 °F 41% 30.02 in 10.0 mi NNW 13.8 mph 21.9 mph N/A   Scattered Clouds
5:15 PM 77.0 °F 51.8 °F 41% 30.03 in 10.0 mi NW 13.8 mph 21.9 mph N/A   Clear
5:35 PM 77.0 °F 51.8 °F 41% 30.03 in 10.0 mi NW 15.0 mph 19.6 mph N/A   Clear
5:55 PM 77.0 °F 51.8 °F 41% 30.04 in 10.0 mi North 11.5 mph 18.4 mph N/A   Clear
6:15 PM 77.0 °F 51.8 °F 41% 30.04 in 10.0 mi NNW 9.2 mph - N/A   Clear
6:35 PM 77.0 °F 51.8 °F 41% 30.05 in 10.0 mi North 9.2 mph - N/A   Clear
6:55 PM 73.4 °F 51.8 °F 47% 30.06 in 10.0 mi North 10.4 mph 16.1 mph N/A   Clear
7:15 PM 73.4 °F 51.8 °F 47% 30.07 in 10.0 mi North 6.9 mph - N/A   Clear
7:35 PM 73.4 °F 51.8 °F 47% 30.07 in 10.0 mi North 8.1 mph - N/A   Clear
7:55 PM 71.6 °F 51.8 °F 50% 30.08 in 10.0 mi North 10.4 mph - N/A   Clear
8:15 PM 71.6 °F 51.8 °F 50% 30.09 in 10.0 mi North 9.2 mph - N/A   Clear
8:35 PM 69.8 °F 51.8 °F 53% 30.08 in 10.0 mi NNE 8.1 mph - N/A   Clear
8:55 PM 69.8 °F 51.8 °F 53% 30.10 in 10.0 mi NE 6.9 mph - N/A   Clear
9:15 PM 69.8 °F 51.8 °F 53% 30.12 in 10.0 mi North 9.2 mph - N/A   Clear
9:35 PM 69.8 °F 51.8 °F 53% 30.12 in 10.0 mi NE 11.5 mph - N/A   Clear
9:55 PM 68.0 °F 51.8 °F 56% 30.12 in 10.0 mi NNE 10.4 mph 16.1 mph N/A   Clear
10:15 PM 68.0 °F 51.8 °F 56% 30.12 in 10.0 mi NE 9.2 mph 18.4 mph N/A   Clear
10:35 PM 66.2 °F 51.8 °F 60% 30.12 in 10.0 mi NE 15.0 mph - N/A   Clear
10:55 PM 64.4 °F 51.8 °F 64% 30.14 in 10.0 mi NE 11.5 mph 17.3 mph N/A   Clear
11:15 PM 62.6 °F 50.0 °F 63% 30.14 in 10.0 mi NE 18.4 mph 21.9 mph N/A   Clear
11:35 PM 62.6 °F 50.0 °F 63% 30.16 in 10.0 mi NE 9.2 mph - N/A   Clear
11:55 PM 62.6 °F 48.2 °F 59% 30.16 in 10.0 mi NNE 6.9 mph - N/A   Clear